TimeCST,TemperatureF,Dew PointF,Humidity,Sea Level PressureIn,VisibilityMPH,Wind Direction,Wind SpeedMPH,Gust SpeedMPH,PrecipitationIn,Events,Conditions,WindDirDegrees,DateUTC
12:53 AM,50.0,48.0,93,29.93,8.0,NNW,4.6,-,N/A,,Clear,340,2012-11-06 06:53:00
1:12 AM,50.0,46.4,87,29.93,10.0,North,4.6,-,N/A,,Scattered Clouds,350,2012-11-06 07:12:00
1:20 AM,50.0,48.2,94,29.93,10.0,Calm,Calm,-,N/A,,Mostly Cloudy,0,2012-11-06 07:20:00
1:27 AM,50.0,48.2,94,29.93,10.0,Calm,Calm,-,N/A,,Mostly Cloudy,0,2012-11-06 07:27:00
1:53 AM,50.0,48.0,93,29.93,10.0,Calm,Calm,-,N/A,,Overcast,0,2012-11-06 07:53:00
2:53 AM,50.0,46.9,89,29.95,7.0,North,4.6,-,N/A,,Overcast,10,2012-11-06 08:53:00
3:53 AM,50.0,46.9,89,29.96,8.0,Variable,3.5,-,N/A,,Overcast,0,2012-11-06 09:53:00
4:53 AM,50.0,46.9,89,29.98,9.0,NNW,5.8,-,N/A,,Overcast,340,2012-11-06 10:53:00
5:00 AM,50.0,46.4,87,29.98,10.0,NNW,8.1,-,N/A,,Overcast,330,2012-11-06 11:00:00
5:44 AM,50.0,46.4,87,29.98,10.0,North,5.8,-,N/A,,Overcast,360,2012-11-06 11:44:00
5:53 AM,50.0,46.0,86,29.98,10.0,North,5.8,-,N/A,,Overcast,360,2012-11-06 11:53:00
6:19 AM,50.0,44.6,82,30.00,10.0,North,8.1,16.1,N/A,,Overcast,350,2012-11-06 12:19:00
6:53 AM,48.9,45.0,86,30.02,10.0,Variable,5.8,-,N/A,,Overcast,0,2012-11-06 12:53:00
7:17 AM,50.0,46.4,87,30.02,10.0,NNW,3.5,-,N/A,,Partly Cloudy,330,2012-11-06 13:17:00
7:53 AM,51.1,46.0,83,30.01,10.0,NNW,9.2,-,N/A,,Mostly Cloudy,340,2012-11-06 13:53:00
8:32 AM,51.8,44.6,76,30.02,10.0,North,6.9,-,N/A,,Overcast,350,2012-11-06 14:32:00
8:53 AM,53.1,45.0,74,30.02,10.0,NNW,9.2,-,N/A,,Mostly Cloudy,340,2012-11-06 14:53:00
9:04 AM,53.6,44.6,72,30.02,10.0,NNW,6.9,17.3,N/A,,Mostly Cloudy,330,2012-11-06 15:04:00
9:25 AM,55.4,46.4,72,30.02,10.0,NNW,8.1,-,N/A,,Scattered Clouds,340,2012-11-06 15:25:00
9:53 AM,55.0,46.0,72,30.01,10.0,NNW,9.2,17.3,N/A,,Scattered Clouds,340,2012-11-06 15:53:00
10:14 AM,57.2,46.4,67,30.01,10.0,NNW,8.1,18.4,N/A,,Mostly Cloudy,330,2012-11-06 16:14:00
10:53 AM,57.9,46.0,65,30.01,10.0,NW,8.1,-,N/A,,Mostly Cloudy,320,2012-11-06 16:53:00
11:53 AM,59.0,46.0,62,29.99,10.0,NW,6.9,16.1,N/A,,Overcast,320,2012-11-06 17:53:00
12:53 PM,57.9,45.0,62,29.96,10.0,North,6.9,-,N/A,,Overcast,350,2012-11-06 18:53:00
1:53 PM,57.0,45.0,64,29.97,10.0,Variable,6.9,-,N/A,,Overcast,0,2012-11-06 19:53:00
2:53 PM,57.0,45.0,64,29.98,10.0,NNW,8.1,-,N/A,,Overcast,330,2012-11-06 20:53:00
3:53 PM,57.0,45.0,64,29.98,10.0,Variable,4.6,-,N/A,,Mostly Cloudy,0,2012-11-06 21:53:00
4:53 PM,54.0,45.0,72,29.98,10.0,Calm,Calm,-,N/A,,Partly Cloudy,0,2012-11-06 22:53:00
5:53 PM,51.1,45.0,80,30.00,10.0,Calm,Calm,-,N/A,,Mostly Cloudy,0,2012-11-06 23:53:00
6:53 PM,52.0,45.0,77,30.01,10.0,Calm,Calm,-,N/A,,Overcast,0,2012-11-07 00:53:00
7:53 PM,52.0,46.0,80,30.02,10.0,Calm,Calm,-,N/A,,Overcast,0,2012-11-07 01:53:00
8:53 PM,51.1,45.0,80,30.02,10.0,Calm,Calm,-,N/A,,Overcast,0,2012-11-07 02:53:00
9:53 PM,50.0,45.0,83,30.03,10.0,Calm,Calm,-,N/A,,Mostly Cloudy,0,2012-11-07 03:53:00
10:53 PM,51.1,45.0,80,30.02,10.0,Variable,3.5,-,N/A,,Overcast,0,2012-11-07 04:53:00
11:53 PM,51.1,46.0,83,30.02,10.0,Variable,3.5,-,N/A,,Overcast,0,2012-11-07 05:53:00